BREEZE-M DEB (TANK) - Orbit

View from above orbital plane
View from above orbital plane
View from above satellite
View from above satellite

Ground track
Ground track

The orbit data is extracted from the following two-line orbital elements,

1 27821U 03024B   13140.20702462  .00008104  00000-0  10239-2 0  1847
2 27821 049.5822 143.5219 5048214 358.4900 027.8044 05.56004182196035
Epoch (UTC): 20 May 2013 04:58:06
Eccentricity: 0.5048214
inclination: 49.5822°
perigee height: 286 km
apogee height: 13875 km
right ascension of ascending node: 143.5219°
argument of perigee: 358.4900°
revolutions per day: 5.56004182
mean anomaly at epoch: 27.8044°
orbit number at epoch: 19603

The dashed part of the orbit path shows where the satellite is in the earth's shadow,  

Developed and maintained by Chris Peat, Heavens-Above GmbH. Please read the updated FAQ before sending e-mail. Imprint. DLR